STARLINK-5378 (56139 NORAD) Tracking and Keplerian Element Data

This shows tracking and keplerian element data for the satellite.

Feedback or suggestion? Click here.




ElementValue
Catalog56139
NameSTARLINK-5378
Epoch Orbit656
Epoch Day127.25001157
Epoch Year2023
RAAN33.6786
Inclination43.0016
Eccentricity0.0001443
Argument of Perigee271.9275
Mean Anonmoly353.3475
Mean Motion15.48869274
Decay Rate0.00072941
L11 56139U 23046AZ 23127.25001157 .00072941 00000+0 13146-2 0 9994
L22 56139 43.0016 33.6786 0001443 271.9275 353.3475 15.48869274 6569



Live tracking and technical data element details for STARLINK-5378 (NORAD 56139). STARLINK-5378 can be tracked NOW for your location showing map with azimuth and elevation plus other details from your city location.







IsCatalogInMostPopularTable: catalog: 56139, numindb: 3
Update: records affected: 1



GetName: 56139 STARLINK-5378

Hit Count: updated at: Sat, 03 Jun 2023 18:53:30 GMT